Hourly Weather Kozya Gorka

Today, 20 October, Tuesday

Time Temperature Precipitation Wind Pressure Humidity
00:00 +1°C° 0.2 mm 3 mps 748 mmHg 86%
01:00 0°C° 0.2 mm 4 mps 748 mmHg 89%
02:00 0°C° 0.2 mm 4 mps 749 mmHg 92%
03:00 0°C° 0.3 mm 4 mps 749 mmHg 91%
04:00 0°C° 0.3 mm 4 mps 750 mmHg 91%
05:00 0°C° 0.3 mm 4 mps 750 mmHg 91%
06:00 0°C° 0 mm 4 mps 751 mmHg 90%
07:00 +1°C° 0 mm 3 mps 752 mmHg 89%
08:00 +1°C° 0 mm 3 mps 753 mmHg 89%
09:00 +2°C° 0 mm 3 mps 754 mmHg 84%
10:00 +1°C° 0 mm 4 mps 754 mmHg 78%
11:00 +3°C° 0 mm 4 mps 755 mmHg 73%
12:00 +3°C° 0.1 mm 4 mps 756 mmHg 73%
13:00 +3°C° 0.1 mm 4 mps 756 mmHg 72%
14:00 +3°C° 0.1 mm 4 mps 757 mmHg 71%
15:00 +2°C° 0 mm 3 mps 757 mmHg 76%
16:00 +2°C° 0 mm 2 mps 757 mmHg 80%
17:00 +2°C° 0 mm 2 mps 758 mmHg 84%
18:00 +2°C° 0 mm 1 mps 758 mmHg 84%
19:00 +2°C° 0 mm 1 mps 758 mmHg 84%
20:00 +2°C° 0 mm 1 mps 758 mmHg 84%
21:00 +2°C° 0 mm 1 mps 758 mmHg 83%
22:00 +1°C° 0 mm 1 mps 758 mmHg 83%
23:00 +1°C° 0 mm 1 mps 758 mmHg 83%

Tomorrow, 21 October, Wednesday

Time Temperature Precipitation Wind Pressure Humidity
00:00 +1°C° 0 mm 1 mps 758 mmHg 84%
01:00 +1°C° 0 mm 1 mps 758 mmHg 84%
02:00 +2°C° 0 mm 1 mps 758 mmHg 85%
03:00 +2°C° 0 mm 1 mps 757 mmHg 87%
04:00 +2°C° 0 mm 1 mps 757 mmHg 89%
05:00 +1°C° 0 mm 2 mps 756 mmHg 91%
06:00 +2°C° 0.2 mm 2 mps 756 mmHg 93%
07:00 +2°C° 0.2 mm 2 mps 755 mmHg 95%
08:00 +3°C° 0.2 mm 2 mps 755 mmHg 97%
09:00 +3°C° 0.2 mm 2 mps 755 mmHg 97%
10:00 +3°C° 0.2 mm 2 mps 755 mmHg 96%
11:00 +3°C° 0.2 mm 2 mps 755 mmHg 96%
12:00 +3°C° 0.1 mm 2 mps 754 mmHg 95%
13:00 +4°C° 0.1 mm 2 mps 754 mmHg 93%
14:00 +3°C° 0.1 mm 3 mps 754 mmHg 92%
15:00 +3°C° 0 mm 3 mps 754 mmHg 93%
16:00 +3°C° 0 mm 3 mps 754 mmHg 93%
17:00 +4°C° 0 mm 2 mps 754 mmHg 94%
18:00 +4°C° 0 mm 2 mps 754 mmHg 94%
19:00 +4°C° 0 mm 2 mps 754 mmHg 94%
20:00 +4°C° 0 mm 2 mps 754 mmHg 94%
21:00 +4°C° 0 mm 2 mps 753 mmHg 95%
22:00 +3°C° 0 mm 3 mps 753 mmHg 95%
23:00 +3°C° 0 mm 3 mps 753 mmHg 96%

Day after tomorrow, 22 October, Thursday

Time Temperature Precipitation Wind Pressure Humidity
00:00 +3°C° 0 mm 3 mps 752 mmHg 95%
01:00 +4°C° 0 mm 3 mps 752 mmHg 94%
02:00 +4°C° 0 mm 3 mps 752 mmHg 94%
03:00 +4°C° 0.1 mm 3 mps 751 mmHg 94%
04:00 +4°C° 0.1 mm 4 mps 750 mmHg 94%
05:00 +5°C° 0.1 mm 4 mps 749 mmHg 94%
06:00 +5°C° 0.9 mm 4 mps 749 mmHg 94%
07:00 +5°C° 0.9 mm 4 mps 748 mmHg 95%
08:00 +5°C° 0.9 mm 4 mps 747 mmHg 95%
09:00 +6°C° 1.2 mm 4 mps 747 mmHg 95%
10:00 +6°C° 1.2 mm 4 mps 746 mmHg 94%
11:00 +7°C° 1.2 mm 4 mps 746 mmHg 94%
12:00 +7°C° 0.9 mm 4 mps 745 mmHg 94%
13:00 +8°C° 0.9 mm 4 mps 745 mmHg 95%
14:00 +8°C° 0.9 mm 4 mps 744 mmHg 95%
15:00 +10°C° 0.9 mm 4 mps 744 mmHg 94%
16:00 +11°C° 0.9 mm 4 mps 743 mmHg 93%
17:00 +10°C° 0.9 mm 5 mps 743 mmHg 92%
18:00 +12°C° 0.4 mm 5 mps 743 mmHg 89%
19:00 +11°C° 0.4 mm 6 mps 743 mmHg 86%
20:00 +11°C° 0.4 mm 7 mps 744 mmHg 83%
21:00 +11°C° 0 mm 6 mps 744 mmHg 84%
22:00 +11°C° 0 mm 6 mps 744 mmHg 84%
23:00 +12°C° 0 mm 5 mps 745 mmHg 84%

23 October, Friday

Time Temperature Precipitation Wind Pressure Humidity
00:00 +10°C° 0 mm 5 mps 745 mmHg 86%
01:00 +11°C° 0 mm 4 mps 745 mmHg 88%
02:00 +11°C° 0 mm 4 mps 745 mmHg 90%
03:00 +11°C° 0.1 mm 4 mps 745 mmHg 91%
04:00 +11°C° 0.1 mm 4 mps 744 mmHg 92%
05:00 +11°C° 0.1 mm 4 mps 743 mmHg 93%
06:00 +11°C° 1.8 mm 4 mps 743 mmHg 93%
07:00 +12°C° 1.8 mm 4 mps 742 mmHg 93%
08:00 +12°C° 1.8 mm 5 mps 742 mmHg 93%
09:00 +12°C° 1.6 mm 4 mps 742 mmHg 93%
10:00 +12°C° 1.6 mm 4 mps 741 mmHg 93%
11:00 +12°C° 1.6 mm 4 mps 741 mmHg 92%
12:00 +12°C° 0.3 mm 4 mps 741 mmHg 87%
13:00 +12°C° 0.3 mm 4 mps 741 mmHg 82%
14:00 +13°C° 0.3 mm 4 mps 741 mmHg 77%
15:00 +12°C° 0 mm 4 mps 741 mmHg 80%
16:00 +11°C° 0 mm 4 mps 741 mmHg 83%
17:00 +10°C° 0 mm 3 mps 741 mmHg 86%
18:00 +10°C° 0 mm 3 mps 741 mmHg 87%
19:00 +9°C° 0 mm 3 mps 741 mmHg 87%
20:00 +9°C° 0 mm 3 mps 741 mmHg 87%
21:00 +9°C° 0 mm 3 mps 742 mmHg 87%
22:00 +8°C° 0 mm 3 mps 742 mmHg 86%
23:00 +8°C° 0 mm 3 mps 742 mmHg 85%

24 October, Saturday

Time Temperature Precipitation Wind Pressure Humidity
00:00 +7°C° 0 mm 3 mps 742 mmHg 86%
01:00 +7°C° 0 mm 3 mps 743 mmHg 87%
02:00 +6°C° 0 mm 2 mps 744 mmHg 88%
03:00 +6°C° 0 mm 2 mps 744 mmHg 88%
04:00 +5°C° 0 mm 2 mps 744 mmHg 89%
05:00 +4°C° 0 mm 2 mps 745 mmHg 90%
06:00 +4°C° 0 mm 2 mps 745 mmHg 89%
07:00 +3°C° 0 mm 2 mps 745 mmHg 89%
08:00 +3°C° 0 mm 2 mps 745 mmHg 88%
09:00 +4°C° 0 mm 2 mps 746 mmHg 83%
10:00 +5°C° 0 mm 2 mps 746 mmHg 78%
11:00 +6°C° 0 mm 2 mps 746 mmHg 74%
12:00 +6°C° 0 mm 2 mps 746 mmHg 73%
13:00 +7°C° 0 mm 1 mps 746 mmHg 73%
14:00 +8°C° 0 mm 1 mps 745 mmHg 72%
15:00 +7°C° 0 mm 1 mps 745 mmHg 77%
16:00 +7°C° 0 mm 1 mps 745 mmHg 82%
17:00 +6°C° 0 mm 1 mps 744 mmHg 86%
18:00 +6°C° 0.2 mm 1 mps 744 mmHg 88%
19:00 +6°C° 0.2 mm 1 mps 744 mmHg 90%
20:00 +6°C° 0.2 mm 2 mps 744 mmHg 92%
21:00 +6°C° 0.6 mm 2 mps 744 mmHg 93%
22:00 +6°C° 0.6 mm 2 mps 744 mmHg 94%
23:00 +6°C° 0.6 mm 2 mps 744 mmHg 95%

25 October, Sunday

Time Temperature Precipitation Wind Pressure Humidity
00:00 +5°C° 0.1 mm 2 mps 745 mmHg 95%
01:00 +5°C° 0.1 mm 2 mps 745 mmHg 95%
02:00 +5°C° 0.1 mm 2 mps 745 mmHg 94%
03:00 +5°C° 0 mm 2 mps 746 mmHg 95%
04:00 +5°C° 0 mm 2 mps 746 mmHg 95%
05:00 +4°C° 0 mm 2 mps 747 mmHg 95%
06:00 +4°C° 0 mm 2 mps 747 mmHg 94%
07:00 +4°C° 0 mm 2 mps 748 mmHg 93%
08:00 +5°C° 0 mm 1 mps 748 mmHg 92%
09:00 +5°C° 0 mm 2 mps 749 mmHg 86%
10:00 +5°C° 0 mm 3 mps 750 mmHg 79%
11:00 +6°C° 0 mm 4 mps 750 mmHg 73%
12:00 +6°C° 0 mm 4 mps 750 mmHg 71%
13:00 +6°C° 0 mm 4 mps 751 mmHg 70%
14:00 +6°C° 0 mm 4 mps 751 mmHg 68%
15:00 +5°C° 0 mm 3 mps 751 mmHg 72%
16:00 +4°C° 0 mm 3 mps 752 mmHg 77%
17:00 +4°C° 0 mm 2 mps 752 mmHg 82%
18:00 +4°C° 0 mm 2 mps 752 mmHg 84%
19:00 +4°C° 0 mm 2 mps 752 mmHg 86%
20:00 +3°C° 0 mm 2 mps 753 mmHg 88%
21:00 +3°C° 0 mm 2 mps 753 mmHg 89%
22:00 +3°C° 0 mm 2 mps 753 mmHg 90%
23:00 +3°C° 0 mm 2 mps 753 mmHg 92%

26 October, Monday

Time Temperature Precipitation Wind Pressure Humidity
00:00 +3°C° 0 mm 2 mps 753 mmHg 92%
01:00 +4°C° 0 mm 1 mps 753 mmHg 93%
02:00 +4°C° 0 mm 1 mps 753 mmHg 93%
03:00 +4°C° 0 mm 1 mps 753 mmHg 94%
04:00 +4°C° 0 mm 1 mps 753 mmHg 94%
05:00 +4°C° 0 mm 1 mps 754 mmHg 95%
06:00 +4°C° 0 mm 1 mps 754 mmHg 95%
07:00 +4°C° 0 mm 1 mps 754 mmHg 95%
08:00 +3°C° 0 mm 1 mps 755 mmHg 95%
09:00 +5°C° 0 mm 1 mps 755 mmHg 88%
10:00 +6°C° 0 mm 1 mps 756 mmHg 82%
11:00 +7°C° 0 mm 1 mps 756 mmHg 75%
12:00 +7°C° 0 mm 1 mps 757 mmHg 73%
13:00 +7°C° 0 mm 1 mps 757 mmHg 71%
14:00 +8°C° 0 mm 1 mps 757 mmHg 69%
15:00 +6°C° 0 mm 1 mps 758 mmHg 75%
16:00 +5°C° 0 mm 1 mps 758 mmHg 80%
17:00 +4°C° 0 mm 1 mps 759 mmHg 86%
18:00 +4°C° 0 mm 1 mps 759 mmHg 87%
19:00 +3°C° 0 mm 1 mps 759 mmHg 89%
20:00 +2°C° 0 mm 2 mps 760 mmHg 90%
21:00 +2°C° 0 mm 2 mps 760 mmHg 90%
22:00 +1°C° 0 mm 2 mps 760 mmHg 90%
23:00 +1°C° 0 mm 2 mps 760 mmHg 89%
Show more